Printer-friendly version

IAU Minor Planet Center

Minor Planet Center

(66272) 1999 JW6

Orbital Elements

The following orbital elements are taken from MPO 97307
 (66272) 1999 JW6
Epoch 2007 Oct. 27.0 TT = JDT 2454400.5                 MPC
M 281.86375              (2000.0)            P               Q
n   0.53247202     Peri.   68.48226     -0.38622442     -0.58219530
a   1.5075493      Node    66.42459     +0.23293263     -0.81206435
e   0.1432044      Incl.   51.31660     +0.89250943     -0.04000155
P   1.85           H   17.1           G   0.15           U   3
From 119 observations at 4 oppositions, 1999-2005, mean residual 0".56.
An explanation of the orbital elements is available.

These orbital elements are also available in forms suitable for loading into a number of popular planetarium-type software programs.


Ephemeris

The following ephemeris is at intervals of five days. A daily ephemeris covering the same time interval is also available.

Personalized ephemerides for this (and other) objects may be generated using the Minor Planet & Comet Ephemeris Service.

Date    TT    R. A. (2000) Decl.     Delta      r     Elong.  Phase     V
2009 10 26    07 53.10   +27 33.4    0.847    1.388    97.5    45.3    19.2
2009 10 31    08 06.37   +31 42.5    0.795    1.379   100.3    45.1    19.0
2009 11 05    08 21.17   +36 22.1    0.748    1.370   103.0    44.8    18.9
2009 11 10    08 38.12   +41 31.4    0.709    1.362   105.3    44.5    18.7
2009 11 15    08 58.10   +47 05.8    0.677    1.354   107.2    44.3    18.6
2009 11 20    09 22.44   +52 55.5    0.654    1.346   108.4    44.2    18.5
2009 11 25    09 53.24   +58 44.4    0.641    1.339   108.8    44.3    18.5
2009 11 30    10 33.52   +64 09.7    0.637    1.332   108.3    44.7    18.5
2009 12 05    11 27.01   +68 43.1    0.643    1.326   107.1    45.3    18.5
2009 12 10    12 35.57   +71 54.0    0.657    1.320   105.2    46.1    18.5
2009 12 15    13 53.74   +73 21.4    0.678    1.314   102.9    46.9    18.6
2009 12 20    15 08.16   +73 11.9    0.705    1.309   100.4    47.7    18.7
2009 12 25    16 08.60   +71 58.5    0.735    1.305    97.8    48.3    18.8
2009 12 30    16 54.00   +70 16.5    0.768    1.301    95.2    48.8    18.9
2010 01 04    17 27.66   +68 29.1    0.802    1.298    92.7    49.2    19.0
2010 01 09    17 53.09   +66 48.5    0.836    1.296    90.5    49.4    19.1
2010 01 14    18 12.80   +65 20.3    0.869    1.294    88.4    49.5    19.2
2010 01 19    18 28.41   +64 06.5    0.900    1.292    86.5    49.5    19.3
2010 01 24    18 40.98   +63 07.1    0.929    1.292    84.9    49.4    19.3
2010 01 29    18 51.22   +62 21.7    0.955    1.292    83.5    49.3    19.4
2010 02 03    18 59.59   +61 49.3    0.977    1.292    82.3    49.1    19.4
2010 02 08    19 06.37   +61 29.2    0.996    1.293    81.4    48.9    19.5
2010 02 13    19 11.73   +61 20.8    1.012    1.295    80.8    48.8    19.5
2010 02 18    19 15.74   +61 23.1    1.023    1.298    80.4    48.7    19.5
2010 02 23    19 18.39   +61 35.4    1.030    1.301    80.2    48.5    19.6
2010 02 28    19 19.63   +61 56.9    1.033    1.305    80.3    48.4    19.6
2010 03 05    19 19.35   +62 27.0    1.032    1.309    80.6    48.4    19.6
2010 03 10    19 17.36   +63 05.1    1.027    1.314    81.1    48.3    19.6
2010 03 15    19 13.36   +63 50.3    1.018    1.319    81.9    48.3    19.6
2010 03 20    19 06.92   +64 41.3    1.005    1.325    82.9    48.2    19.5
2010 03 25    18 57.55   +65 36.2    0.989    1.331    84.1    48.2    19.5
2010 03 30    18 44.61   +66 32.1    0.971    1.338    85.6    48.1    19.5
2010 04 04    18 27.42   +67 25.2    0.949    1.345    87.2    48.0    19.4
2010 04 09    18 05.27   +68 09.5    0.926    1.353    89.0    47.8    19.4
2010 04 14    17 37.78   +68 36.7    0.902    1.361    91.0    47.5    19.3
2010 04 19    17 05.36   +68 36.4    0.878    1.369    93.1    47.1    19.3
2010 04 24    16 29.65   +67 57.2    0.853    1.377    95.3    46.6    19.2
2010 04 29    15 53.36   +66 29.9    0.830    1.386    97.5    46.1    19.2
2010 05 04    15 19.38   +64 09.8    0.810    1.396    99.7    45.4    19.1
2010 05 09    14 49.74   +60 57.1    0.793    1.405   101.8    44.7    19.0
2010 05 14    14 25.30   +56 56.7    0.780    1.414   103.6    44.0    19.0
2010 05 19    14 05.96   +52 16.3    0.773    1.424   105.1    43.3    19.0
2010 05 24    13 51.12   +47 05.7    0.773    1.434   106.1    42.7    19.0
2010 05 29    13 40.02   +41 35.6    0.780    1.444   106.5    42.3    19.0
2010 06 03    13 31.94   +35 56.3    0.795    1.454   106.4    42.0    19.1
2010 06 08    13 26.31   +30 17.5    0.817    1.464   105.6    41.9    19.1
2010 06 13    13 22.67   +24 47.0    0.846    1.474   104.3    41.9    19.2
2010 06 18    13 20.65   +19 30.7    0.883    1.484   102.6    41.9    19.3
2010 06 23    13 19.97   +14 32.4    0.926    1.495   100.5    42.0    19.4
2010 06 28    13 20.39   +09 54.0    0.973    1.505    98.2    42.0    19.6
2010 07 03    13 21.75   +05 35.9    1.026    1.515    95.7    41.9    19.7
2010 07 08    13 23.92   +01 37.4    1.082    1.525    93.1    41.7    19.8
2010 07 13    13 26.79   -02 02.9    1.141    1.534    90.4    41.5    19.9
2010 07 18    13 30.29   -05 26.5    1.203    1.544    87.8    41.1    20.1
2010 07 23    13 34.35   -08 35.0    1.266    1.554    85.1    40.7    20.2
2010 07 28    13 38.92   -11 30.1    1.330    1.563    82.4    40.1    20.3
2010 08 02    13 43.96   -14 13.3    1.395    1.572    79.8    39.4    20.4
2010 08 07    13 49.45   -16 46.2    1.459    1.582    77.2    38.7    20.5
2010 08 12    13 55.38   -19 09.9    1.524    1.590    74.6    37.9    20.5
2010 08 17    14 01.72   -21 25.5    1.587    1.599    72.1    37.1    20.6
2010 08 22    14 08.47   -23 34.1    1.650    1.608    69.6    36.2    20.7
2010 08 27    14 15.62   -25 36.3    1.711    1.616    67.2    35.2    20.8
2010 09 01    14 23.18   -27 32.9    1.771    1.624    64.9    34.2    20.8
2010 09 06    14 31.15   -29 24.5    1.828    1.631    62.6    33.3    20.9
2010 09 11    14 39.55   -31 11.5    1.884    1.639    60.3    32.3    20.9
2010 09 16    14 48.39   -32 54.4    1.937    1.646    58.2    31.3    21.0
2010 09 21    14 57.68   -34 33.4    1.988    1.653    56.1    30.3    21.0

Valid HTML 4.01!